| time (UTC) | temp F | wind direction | speed knots | gust knots | rain 1hr in | rain 24hr in | rain mn in | humidity % | barometer mb |
| 20260510164608 | 66 | 35 | 13.9 | 17.4 | 0.00 | 0.00 | 0.00 | 51 | 1019.8 |
| 20260510164104 | 66 | 29 | 6.1 | 13.0 | 0.00 | 0.00 | 0.00 | 51 | 1019.8 |
| 20260510163559 | 66 | 338 | 7.0 | 13.0 | 0.00 | 0.00 | 0.00 | 51 | 1019.8 |
| 20260510163056 | 66 | 36 | 10.4 | 15.6 | 0.00 | 0.00 | 0.00 | 53 | 1019.8 |
| 20260510162550 | 65 | 5 | 1.7 | 16.5 | 0.00 | 0.00 | 0.00 | 55 | 1019.8 |
| 20260510162047 | 66 | 22 | 12.2 | 15.6 | 0.00 | 0.00 | 0.00 | 54 | 1019.8 |
| 20260510161543 | 66 | 28 | 10.4 | 14.8 | 0.00 | 0.00 | 0.00 | 55 | 1019.9 |
| 20260510161040 | 65 | 1 | 4.3 | 13.0 | 0.00 | 0.00 | 0.00 | 55 | 1019.6 |
| 20260510160538 | 64 | 16 | 7.8 | 14.8 | 0.00 | 0.00 | 0.00 | 58 | 1019.6 |
| 20260510160037 | 64 | 17 | 7.8 | 13.9 | 0.00 | 0.00 | 0.00 | 58 | 1019.5 |
| 20260510155534 | 64 | 33 | 9.6 | 15.6 | 0.00 | 0.00 | 0.00 | 58 | 1019.3 |
| 20260510155030 | 64 | 29 | 15.6 | 19.1 | 0.00 | 0.00 | 0.00 | 57 | 1019.2 |
| 20260510154526 | 64 | 30 | 7.8 | 14.8 | 0.00 | 0.00 | 0.00 | 58 | 1019.3 |
| 20260510154021 | 64 | 29 | 14.8 | 18.2 | 0.00 | 0.00 | 0.00 | 59 | 1019.3 |
| 20260510153516 | 64 | 33 | 11.3 | 13.0 | 0.00 | 0.00 | 0.00 | 61 | 1019.2 |
| 20260510153013 | 64 | 18 | 6.1 | 13.9 | 0.00 | 0.00 | 0.00 | 60 | 1019.0 |
| 20260510152511 | 64 | 39 | 6.1 | 12.2 | 0.00 | 0.00 | 0.00 | 59 | 1019.1 |
| 20260510152007 | 63 | 34 | 13.0 | 15.6 | 0.00 | 0.00 | 0.00 | 58 | 1019.0 |
| 20260510151503 | 63 | 30 | 10.4 | 14.8 | 0.00 | 0.00 | 0.00 | 60 | 1019.0 |
| 20260510151000 | 63 | 44 | 9.6 | 15.6 | 0.00 | 0.00 | 0.00 | 62 | 1019.2 |
| 20260510150455 | 63 | 30 | 8.7 | 16.5 | 0.00 | 0.00 | 0.00 | 66 | 1019.2 |
| 20260510145951 | 63 | 35 | 8.7 | 13.9 | 0.00 | 0.00 | 0.00 | 68 | 1019.3 |
| 20260510145448 | 63 | 38 | 5.2 | 13.9 | 0.00 | 0.00 | 0.00 | 70 | 1019.2 |
| 20260510144944 | 63 | 322 | 4.3 | 13.9 | 0.00 | 0.00 | 0.00 | 69 | 1019.2 |
| 20260510144441 | 63 | 28 | 7.0 | 11.3 | 0.00 | 0.00 | 0.00 | 71 | 1019.6 |
| 20260510143937 | 63 | 32 | 6.1 | 7.8 | 0.00 | 0.00 | 0.00 | 71 | 1019.3 |
| 20260510143433 | 63 | 26 | 12.2 | 15.6 | 0.00 | 0.00 | 0.00 | 71 | 1019.4 |
| 20260510142930 | 63 | 13 | 6.1 | 9.6 | 0.00 | 0.00 | 0.00 | 72 | 1019.3 |
| 20260510142427 | 63 | 34 | 7.8 | 10.4 | 0.00 | 0.00 | 0.00 | 72 | 1019.3 |
| 20260510141923 | 62 | 29 | 9.6 | 13.9 | 0.00 | 0.00 | 0.00 | 72 | 1019.4 |
| 20260510141420 | 63 | 25 | 9.6 | 13.0 | 0.00 | 0.00 | 0.00 | 72 | 1019.5 |
| 20260510140917 | 63 | 20 | 7.8 | 9.6 | 0.00 | 0.00 | 0.00 | 72 | 1019.3 |
| 20260510140414 | 63 | 45 | 10.4 | 12.2 | 0.00 | 0.00 | 0.00 | 73 | 1019.3 |
| 20260510135913 | 62 | 26 | 10.4 | 12.2 | 0.00 | 0.00 | 0.00 | 73 | 1019.1 |
| 20260510135410 | 62 | 24 | 8.7 | 13.0 | 0.00 | 0.00 | 0.00 | 74 | 1018.9 |
| 20260510134907 | 62 | 33 | 13.0 | 14.8 | 0.00 | 0.00 | 0.00 | 74 | 1018.9 |
| 20260510134403 | 62 | 32 | 9.6 | 14.8 | 0.00 | 0.00 | 0.00 | 74 | 1018.8 |
| 20260510133859 | 62 | 28 | 6.1 | 15.6 | 0.00 | 0.00 | 0.00 | 74 | 1018.6 |
| 20260510133355 | 62 | 28 | 13.0 | 15.6 | 0.00 | 0.00 | 0.00 | 73 | 1018.7 |
| 20260510132851 | 62 | 7 | 7.8 | 13.9 | 0.00 | 0.00 | 0.00 | 74 | 1018.8 |
| 20260510132349 | 62 | 25 | 9.6 | 16.5 | 0.00 | 0.00 | 0.00 | 74 | 1018.6 |
| 20260510131846 | 62 | 19 | 7.8 | 14.8 | 0.00 | 0.00 | 0.00 | 73 | 1018.4 |
| 20260510131343 | 62 | 24 | 8.7 | 14.8 | 0.00 | 0.00 | 0.00 | 74 | 1018.1 |
| 20260510130839 | 62 | 18 | 5.2 | 13.9 | 0.00 | 0.00 | 0.00 | 75 | 1018.1 |
| 20260510130337 | 62 | 38 | 9.6 | 14.8 | 0.00 | 0.00 | 0.00 | 74 | 1018.3 |
| 20260510125833 | 62 | 16 | 8.7 | 14.8 | 0.00 | 0.00 | 0.00 | 75 | 1018.1 |
| 20260510125329 | 61 | 31 | 11.3 | 15.6 | 0.00 | 0.00 | 0.00 | 76 | 1017.8 |
| 20260510124826 | 61 | 39 | 10.4 | 11.3 | 0.00 | 0.00 | 0.00 | 77 | 1017.8 |
| 20260510124323 | 61 | 31 | 10.4 | 14.8 | 0.00 | 0.00 | 0.00 | 78 | 1017.8 |
| 20260510123819 | 61 | 38 | 7.0 | 12.2 | 0.00 | 0.00 | 0.00 | 79 | 1017.6 |
| 20260510123315 | 61 | 32 | 7.8 | 12.2 | 0.00 | 0.00 | 0.00 | 79 | 1017.4 |
| 20260510122811 | 60 | 27 | 9.6 | 13.0 | 0.00 | 0.00 | 0.00 | 80 | 1017.5 |
| 20260510122307 | 60 | 35 | 13.0 | 13.9 | 0.00 | 0.00 | 0.00 | 80 | 1017.5 |
| 20260510121804 | 60 | 31 | 5.2 | 12.2 | 0.00 | 0.00 | 0.00 | 80 | 1017.4 |
| 20260510121302 | 60 | 30 | 9.6 | 13.0 | 0.00 | 0.00 | 0.00 | 80 | 1016.9 |
| 20260510120758 | 59 | 36 | 7.8 | 11.3 | 0.00 | 0.00 | 0.00 | 82 | 1017.0 |
| 20260510120255 | 59 | 36 | 6.1 | 9.6 | 0.00 | 0.00 | 0.00 | 82 | 1016.8 |
| 20260510115751 | 59 | 27 | 9.6 | 12.2 | 0.00 | 0.00 | 0.00 | 81 | 1016.9 |
| 20260510115250 | 60 | 26 | 8.7 | 12.2 | 0.00 | 0.00 | 0.00 | 80 | 1016.7 |
| 20260510114749 | 60 | 31 | 9.6 | 13.0 | 0.00 | 0.00 | 0.00 | 80 | 1016.7 |
| 20260510114248 | 60 | 30 | 6.1 | 9.6 | 0.00 | 0.00 | 0.00 | 80 | 1016.8 |
| 20260510113748 | 60 | 31 | 7.0 | 9.6 | 0.00 | 0.00 | 0.00 | 79 | 1016.6 |
| 20260510113245 | 60 | 29 | 7.8 | 10.4 | 0.00 | 0.00 | 0.00 | 78 | 1016.5 |
| 20260510112741 | 60 | 31 | 9.6 | 10.4 | 0.00 | 0.00 | 0.00 | 78 | 1016.2 |
| 20260510112238 | 60 | 38 | 7.0 | 9.6 | 0.00 | 0.00 | 0.00 | 77 | 1016.1 |
| 20260510111734 | 60 | 36 | 7.0 | 8.7 | 0.00 | 0.00 | 0.00 | 76 | 1016.0 |
| 20260510111231 | 60 | 24 | 6.1 | 9.6 | 0.00 | 0.00 | 0.00 | 76 | 1015.9 |
| 20260510110730 | 61 | 23 | 7.0 | 10.4 | 0.00 | 0.00 | 0.00 | 74 | 1015.9 |
| 20260510110229 | 61 | 29 | 7.8 | 9.6 | 0.00 | 0.00 | 0.00 | 73 | 1015.7 |
| 20260510105728 | 61 | 28 | 4.3 | 7.8 | 0.00 | 0.00 | 0.00 | 73 | 1015.8 |
| 20260510105223 | 61 | 28 | 5.2 | 7.0 | 0.00 | 0.00 | 0.00 | 73 | 1015.5 |
| 20260510104720 | 60 | 37 | 5.2 | 5.2 | 0.00 | 0.00 | 0.00 | 73 | 1015.6 |
| 20260510104218 | 60 | 18 | 2.6 | 4.3 | 0.00 | 0.00 | 0.00 | 74 | 1015.5 |
| 20260510103714 | 60 | 5 | 2.6 | 4.3 | 0.00 | 0.00 | 0.00 | 75 | 1015.6 |
| 20260510103211 | 60 | 13 | 2.6 | 3.5 | 0.00 | 0.00 | 0.00 | 77 | 1015.5 |
| 20260510102711 | 59 | 2 | 3.5 | 3.5 | 0.00 | 0.00 | 0.00 | 78 | 1015.7 |
| 20260510102207 | 59 | 34 | 0.9 | 1.7 | 0.00 | 0.00 | 0.00 | 78 | 1015.7 |
| 20260510101704 | 60 | 58 | 1.7 | 2.6 | 0.00 | 0.00 | 0.00 | 78 | 1015.7 |
| 20260510101203 | 60 | 53 | 1.7 | 1.7 | 0.00 | 0.00 | 0.00 | 78 | 1015.6 |
| 20260510100658 | 60 | 12 | 1.7 | 1.7 | 0.00 | 0.00 | 0.00 | 76 | 1015.6 |
| 20260510100156 | 60 | 326 | 2.6 | 3.5 | 0.00 | 0.00 | 0.00 | 76 | 1015.5 |
| 20260510095651 | 60 | 0 | 0.0 | 2.6 | 0.00 | 0.00 | 0.00 | 77 | 1015.5 |
| 20260510095147 | 60 | 48 | 0.0 | 1.7 | 0.00 | 0.00 | 0.00 | 78 | 1015.5 |
| 20260510094645 | 60 | 0 | 0.0 | 0.9 | 0.00 | 0.00 | 0.00 | 77 | 1015.3 |
| 20260510094141 | 60 | 40 | 0.0 | 0.9 | 0.00 | 0.00 | 0.00 | 77 | 1015.4 |
| 20260510093638 | 60 | 97 | 0.0 | 1.7 | 0.00 | 0.00 | 0.00 | 76 | 1015.2 |
| 20260510093135 | 60 | 355 | 0.0 | 1.7 | 0.00 | 0.00 | 0.00 | 77 | 1015.3 |
| 20260510092631 | 60 | 260 | 0.9 | 1.7 | 0.00 | 0.00 | 0.00 | 78 | 1015.1 |
| 20260510092127 | 60 | 279 | 0.0 | 0.9 | 0.00 | 0.00 | 0.00 | 77 | 1015.1 |
| 20260510091623 | 59 | 293 | 0.0 | 0.9 | 0.00 | 0.00 | 0.00 | 80 | 1014.9 |
| 20260510091119 | 60 | 161 | 1.7 | 1.7 | 0.00 | 0.00 | 0.00 | 78 | 1014.8 |
| 20260510090616 | 61 | 133 | 1.7 | 2.6 | 0.00 | 0.00 | 0.00 | 77 | 1014.7 |
| 20260510090112 | 60 | 76 | 1.7 | 1.7 | 0.00 | 0.00 | 0.00 | 76 | 1014.7 |
| 20260510085607 | 60 | 117 | 1.7 | 2.6 | 0.00 | 0.00 | 0.00 | 78 | 1014.5 |
| 20260510085103 | 60 | 167 | 0.9 | 1.7 | 0.00 | 0.00 | 0.00 | 77 | 1014.5 |
| 20260510084600 | 61 | 118 | 1.7 | 4.3 | 0.00 | 0.00 | 0.00 | 75 | 1014.6 |
| 20260510084056 | 62 | 93 | 0.9 | 0.9 | 0.00 | 0.00 | 0.00 | 72 | 1014.6 |
| 20260510083553 | 62 | 54 | 0.9 | 1.7 | 0.00 | 0.00 | 0.00 | 71 | 1014.5 |
| 20260510083049 | 62 | 98 | 0.9 | 1.7 | 0.00 | 0.00 | 0.00 | 70 | 1014.6 |
| 20260510082546 | 62 | 241 | 0.9 | 0.9 | 0.00 | 0.00 | 0.00 | 69 | 1014.6 |
| 20260510082042 | 63 | 189 | 1.7 | 3.5 | 0.00 | 0.00 | 0.00 | 68 | 1014.4 |
| 20260510081537 | 63 | 119 | 4.3 | 5.2 | 0.00 | 0.00 | 0.00 | 68 | 1014.5 |
| 20260510081033 | 66 | 54 | 2.6 | 4.3 | 0.00 | 0.00 | 0.00 | 62 | 1014.2 |
| 20260510080532 | 66 | 68 | 1.7 | 3.5 | 0.00 | 0.00 | 0.00 | 63 | 1014.3 |
| 20260510080029 | 66 | 90 | 3.5 | 5.2 | 0.00 | 0.00 | 0.00 | 62 | 1013.9 |
| 20260510075526 | 62 | 76 | 2.6 | 2.6 | 0.00 | 0.00 | 0.00 | 73 | 1014.1 |
| 20260510075023 | 62 | 88 | 1.7 | 1.7 | 0.00 | 0.00 | 0.00 | 72 | 1014.3 |
| 20260510074521 | 62 | 124 | 0.0 | 0.9 | 0.00 | 0.00 | 0.00 | 73 | 1014.6 |
| 20260510074016 | 63 | 177 | 0.0 | 3.5 | 0.00 | 0.00 | 0.00 | 72 | 1014.6 |
| 20260510073512 | 67 | 157 | 1.7 | 3.5 | 0.00 | 0.00 | 0.00 | 66 | 1014.5 |
| 20260510073009 | 66 | 70 | 2.6 | 4.3 | 0.00 | 0.00 | 0.00 | 61 | 1014.4 |
| 20260510072506 | 64 | 40 | 2.6 | 2.6 | 0.00 | 0.00 | 0.00 | 69 | 1014.3 |
| 20260510072001 | 63 | 1 | 1.7 | 1.7 | 0.00 | 0.00 | 0.00 | 70 | 1014.2 |
| 20260510071458 | 63 | 102 | 1.7 | 2.6 | 0.00 | 0.00 | 0.00 | 70 | 1014.1 |
| 20260510070956 | 62 | 103 | 2.6 | 2.6 | 0.00 | 0.00 | 0.00 | 72 | 1014.1 |
| 20260510070453 | 63 | 89 | 0.0 | 1.7 | 0.00 | 0.00 | 0.00 | 73 | 1014.1 |
| 20260510065949 | 63 | 88 | 2.6 | 3.5 | 0.00 | 0.00 | 0.00 | 71 | 1014.3 |
| 20260510065446 | 63 | 97 | 1.7 | 2.6 | 0.00 | 0.00 | 0.00 | 73 | 1014.5 |
| 20260510064942 | 64 | 99 | 1.7 | 2.6 | 0.00 | 0.00 | 0.00 | 69 | 1014.3 |
| 20260510064439 | 64 | 97 | 1.7 | 1.7 | 0.00 | 0.00 | 0.00 | 69 | 1014.2 |
| 20260510063936 | 64 | 69 | 0.0 | 0.9 | 0.00 | 0.00 | 0.00 | 68 | 1014.5 |
| 20260510063432 | 64 | 256 | 1.7 | 2.6 | 0.00 | 0.00 | 0.00 | 68 | 1014.4 |
| 20260510062930 | 64 | 348 | 3.5 | 5.2 | 0.00 | 0.00 | 0.00 | 67 | 1014.4 |
| 20260510062425 | 64 | 350 | 1.7 | 4.3 | 0.00 | 0.00 | 0.00 | 68 | 1014.4 |
| 20260510061921 | 63 | 0 | 13.0 | 14.8 | 0.00 | 0.00 | 0.00 | 66 | 1014.1 |
| 20260510061417 | 64 | 297 | 1.7 | 3.5 | 0.00 | 0.00 | 0.00 | 68 | 1014.2 |
| 20260510060913 | 63 | 86 | 0.9 | 1.7 | 0.00 | 0.00 | 0.00 | 67 | 1013.9 |
| 20260510060410 | 63 | 124 | 0.0 | 0.9 | 0.00 | 0.00 | 0.00 | 70 | 1014.0 |
| 20260510055907 | 63 | 102 | 0.9 | 1.7 | 0.00 | 0.00 | 0.00 | 69 | 1014.3 |
| 20260510055402 | 63 | 120 | 0.9 | 0.9 | 0.00 | 0.00 | 0.00 | 71 | 1014.3 |
| 20260510054900 | 63 | 217 | 0.0 | 0.0 | 0.00 | 0.00 | 0.00 | 69 | 1014.0 |
| 20260510054356 | 63 | 180 | 0.0 | 0.9 | 0.00 | 0.00 | 0.00 | 70 | 1014.3 |
| 20260510053851 | 64 | 230 | 0.0 | 0.9 | 0.00 | 0.00 | 0.00 | 69 | 1014.5 |
| 20260510053347 | 63 | 187 | 0.9 | 0.9 | 0.00 | 0.00 | 0.00 | 70 | 1014.3 |
| 20260510052843 | 64 | 153 | 0.0 | 1.7 | 0.00 | 0.00 | 0.00 | 70 | 1014.2 |
| 20260510052338 | 64 | 125 | 1.7 | 2.6 | 0.00 | 0.00 | 0.00 | 69 | 1014.2 |
| 20260510051835 | 64 | 134 | 2.6 | 3.5 | 0.00 | 0.00 | 0.00 | 68 | 1014.2 |
| 20260510051332 | 64 | 146 | 1.7 | 3.5 | 0.00 | 0.00 | 0.00 | 72 | 1014.2 |
| 20260510050830 | 63 | 126 | 1.7 | 2.6 | 0.00 | 0.00 | 0.00 | 73 | 1014.1 |
| 20260510050325 | 64 | 135 | 0.0 | 0.0 | 0.00 | 0.00 | 0.00 | 73 | 1014.2 |
| 20260510045823 | 64 | 89 | 0.0 | 0.0 | 0.00 | 0.00 | 0.00 | 74 | 1013.9 |
| 20260510045319 | 64 | 104 | 0.0 | 0.9 | 0.00 | 0.00 | 0.00 | 71 | 1014.1 |
| 20260510044816 | 65 | 139 | 0.9 | 1.7 | 0.00 | 0.00 | 0.00 | 69 | 1013.9 |
| 20260510044313 | 64 | 156 | 1.7 | 1.7 | 0.00 | 0.00 | 0.00 | 69 | 1013.9 |
| 20260510043809 | 65 | 245 | 0.9 | 1.7 | 0.00 | 0.00 | 0.00 | 70 | 1013.8 |
| 20260510043300 | 66 | 134 | 1.7 | 2.6 | 0.00 | 0.00 | 0.00 | 64 | 1013.8 |
| 20260510042758 | 65 | 128 | 3.5 | 3.5 | 0.00 | 0.00 | 0.00 | 67 | 1013.8 |
| 20260510042252 | 65 | 112 | 1.7 | 3.5 | 0.00 | 0.00 | 0.00 | 68 | 1013.6 |
| 20260510041744 | 64 | 133 | 1.7 | 1.7 | 0.00 | 0.00 | 0.00 | 69 | 1014.1 |
| 20260510041241 | 64 | 135 | 1.7 | 1.7 | 0.00 | 0.00 | 0.00 | 68 | 1014.0 |
| 20260510040739 | 64 | 124 | 0.0 | 0.0 | 0.00 | 0.00 | 0.00 | 70 | 1014.0 |
| 20260510040236 | 64 | 129 | 0.0 | 1.7 | 0.00 | 0.00 | 0.00 | 67 | 1013.8 |
| 20260510035730 | 66 | 193 | 0.9 | 1.7 | 0.00 | 0.00 | 0.00 | 63 | 1013.8 |
| 20260510035226 | 65 | 153 | 2.6 | 3.5 | 0.00 | 0.00 | 0.00 | 66 | 1013.7 |
| 20260510034723 | 65 | 130 | 1.7 | 1.7 | 0.00 | 0.00 | 0.00 | 64 | 1013.5 |
| 20260510034221 | 64 | 144 | 1.7 | 1.7 | 0.00 | 0.00 | 0.00 | 67 | 1013.4 |
| 20260510033716 | 66 | 133 | 0.9 | 1.7 | 0.00 | 0.00 | 0.00 | 64 | 1013.5 |
| 20260510033215 | 67 | 130 | 2.6 | 2.6 | 0.00 | 0.00 | 0.00 | 61 | 1013.5 |
| 20260510032710 | 67 | 138 | 1.7 | 2.6 | 0.00 | 0.00 | 0.00 | 61 | 1013.3 |
| 20260510032206 | 67 | 148 | 2.6 | 3.5 | 0.00 | 0.00 | 0.00 | 60 | 1013.3 |
| 20260510031702 | 68 | 153 | 2.6 | 2.6 | 0.00 | 0.00 | 0.00 | 59 | 1013.3 |
| 20260510031158 | 67 | 148 | 2.6 | 2.6 | 0.00 | 0.00 | 0.00 | 60 | 1013.2 |
| 20260510030652 | 66 | 130 | 1.7 | 1.7 | 0.00 | 0.00 | 0.00 | 62 | 1013.4 |
| 20260510030151 | 65 | 129 | 1.7 | 1.7 | 0.00 | 0.00 | 0.00 | 69 | 1013.2 |
| 20260510025648 | 66 | 130 | 0.9 | 1.7 | 0.00 | 0.00 | 0.00 | 68 | 1013.2 |
| 20260510025145 | 65 | 114 | 1.7 | 2.6 | 0.00 | 0.00 | 0.00 | 69 | 1013.1 |
| 20260510024642 | 65 | 87 | 0.9 | 1.7 | 0.00 | 0.00 | 0.00 | 71 | 1013.0 |
| 20260510024138 | 65 | 142 | 0.0 | 0.0 | 0.00 | 0.00 | 0.00 | 70 | 1013.0 |
| 20260510023634 | 66 | 142 | 0.0 | 0.0 | 0.00 | 0.00 | 0.00 | 68 | 1012.8 |
| 20260510023131 | 67 | 117 | 0.9 | 1.7 | 0.00 | 0.00 | 0.00 | 65 | 1012.7 |
| 20260510022631 | 68 | 147 | 0.0 | 1.7 | 0.00 | 0.00 | 0.00 | 66 | 1012.5 |
| 20260510022126 | 70 | 136 | 1.7 | 1.7 | 0.00 | 0.00 | 0.00 | 55 | 1012.2 |
| 20260510021622 | 69 | 146 | 1.7 | 1.7 | 0.00 | 0.00 | 0.00 | 56 | 1011.9 |
| 20260510021120 | 67 | 97 | 0.9 | 1.7 | 0.00 | 0.00 | 0.00 | 65 | 1011.8 |
| 20260510020613 | 68 | 110 | 1.7 | 1.7 | 0.00 | 0.00 | 0.00 | 63 | 1011.9 |
| 20260510020109 | 68 | 123 | 0.0 | 1.7 | 0.00 | 0.00 | 0.00 | 59 | 1011.8 |
| 20260510015605 | 69 | 113 | 1.7 | 1.7 | 0.00 | 0.00 | 0.00 | 59 | 1012.0 |
| 20260510015102 | 71 | 135 | 1.7 | 1.7 | 0.00 | 0.00 | 0.00 | 54 | 1011.6 |
| 20260510014557 | 69 | 132 | 0.9 | 1.7 | 0.00 | 0.00 | 0.00 | 60 | 1011.8 |
| 20260510014055 | 69 | 124 | 1.7 | 1.7 | 0.00 | 0.00 | 0.00 | 60 | 1011.5 |
| 20260510013550 | 71 | 136 | 1.7 | 1.7 | 0.00 | 0.00 | 0.00 | 54 | 1011.3 |
| 20260510013046 | 71 | 143 | 0.9 | 1.7 | 0.00 | 0.00 | 0.00 | 55 | 1011.5 |
| 20260510012545 | 72 | 158 | 0.9 | 1.7 | 0.00 | 0.00 | 0.00 | 52 | 1011.3 |
| 20260510012042 | 73 | 167 | 1.7 | 1.7 | 0.00 | 0.00 | 0.00 | 51 | 1011.3 |
| 20260510011541 | 73 | 170 | 0.9 | 1.7 | 0.00 | 0.00 | 0.00 | 51 | 1011.2 |
| 20260510011037 | 73 | 172 | 0.9 | 1.7 | 0.00 | 0.00 | 0.00 | 51 | 1011.3 |
| 20260510010534 | 74 | 163 | 0.9 | 1.7 | 0.00 | 0.00 | 0.00 | 51 | 1011.2 |
| 20260510010032 | 74 | 154 | 2.6 | 2.6 | 0.00 | 0.00 | 0.00 | 52 | 1011.0 |
| 20260510005527 | 75 | 138 | 2.6 | 2.6 | 0.00 | 0.00 | 0.00 | 48 | 1011.1 |
| 20260510005025 | 76 | 147 | 0.9 | 1.7 | 0.00 | 0.00 | 0.00 | 48 | 1011.0 |
| 20260510004522 | 77 | 173 | 3.5 | 3.5 | 0.00 | 0.00 | 0.00 | 42 | 1011.0 |
| 20260510004021 | 77 | 182 | 2.6 | 2.6 | 0.00 | 0.00 | 0.00 | 45 | 1010.8 |
| 20260510003517 | 77 | 166 | 1.7 | 2.6 | 0.00 | 0.00 | 0.00 | 48 | 1010.8 |
| 20260510003012 | 77 | 139 | 1.7 | 2.6 | 0.00 | 0.00 | 0.00 | 48 | 1010.6 |
| 20260510002508 | 79 | 158 | 1.7 | 2.6 | 0.00 | 0.00 | 0.00 | 39 | 1010.8 |
| 20260510002005 | 79 | 182 | 1.7 | 1.7 | 0.00 | 0.00 | 0.00 | 40 | 1010.8 |
| 20260510001502 | 79 | 186 | 2.6 | 3.5 | 0.00 | 0.00 | 0.00 | 38 | 1010.8 |
| 20260510001000 | 79 | 186 | 1.7 | 2.6 | 0.00 | 0.00 | 0.00 | 38 | 1010.7 |
| 20260510000456 | 79 | 215 | 2.6 | 3.5 | 0.00 | 0.00 | 0.00 | 38 | 1011.0 |
| 20260509235952 | 79 | 190 | 4.3 | 5.2 | 0.00 | 0.00 | 0.00 | 37 | 1010.9 |
| 20260509235449 | 80 | 189 | 1.7 | 2.6 | 0.00 | 0.00 | 0.00 | 39 | 1011.1 |
| 20260509234945 | 79 | 218 | 1.7 | 2.6 | 0.00 | 0.00 | 0.00 | 38 | 1011.0 |
| 20260509234442 | 80 | 194 | 1.7 | 2.6 | 0.00 | 0.00 | 0.00 | 39 | 1010.7 |
| 20260509233940 | 80 | 212 | 1.7 | 3.5 | 0.00 | 0.00 | 0.00 | 40 | 1011.0 |
| 20260509233437 | 81 | 263 | 1.7 | 3.5 | 0.00 | 0.00 | 0.00 | 40 | 1010.9 |
| 20260509232933 | 80 | 225 | 5.2 | 5.2 | 0.00 | 0.00 | 0.00 | 38 | 1011.0 |
| 20260509232431 | 80 | 205 | 4.3 | 7.0 | 0.00 | 0.00 | 0.00 | 36 | 1011.0 |
| 20260509231927 | 81 | 210 | 5.2 | 6.1 | 0.00 | 0.00 | 0.00 | 37 | 1011.0 |
| 20260509231424 | 81 | 245 | 3.5 | 6.1 | 0.00 | 0.00 | 0.00 | 37 | 1011.1 |
| 20260509230922 | 81 | 214 | 7.0 | 8.7 | 0.00 | 0.00 | 0.00 | 36 | 1011.0 |
| 20260509230418 | 81 | 254 | 3.5 | 4.3 | 0.00 | 0.00 | 0.00 | 37 | 1010.8 |
| 20260509225914 | 81 | 202 | 2.6 | 4.3 | 0.00 | 0.00 | 0.00 | 38 | 1010.8 |
| 20260509225411 | 81 | 222 | 4.3 | 8.7 | 0.00 | 0.00 | 0.00 | 40 | 1010.8 |
| 20260509224907 | 80 | 202 | 3.5 | 5.2 | 0.00 | 0.00 | 0.00 | 37 | 1010.9 |
| 20260509224403 | 81 | 192 | 5.2 | 7.0 | 0.00 | 0.00 | 0.00 | 38 | 1011.0 |
| 20260509223900 | 80 | 140 | 3.5 | 7.0 | 0.00 | 0.00 | 0.00 | 37 | 1010.8 |
| 20260509223356 | 80 | 101 | 4.3 | 7.8 | 0.00 | 0.00 | 0.00 | 37 | 1010.8 |
| 20260509222854 | 80 | 104 | 2.6 | 6.1 | 0.00 | 0.00 | 0.00 | 36 | 1010.9 |
| 20260509222354 | 80 | 147 | 5.2 | 8.7 | 0.00 | 0.00 | 0.00 | 36 | 1010.9 |
| 20260509221850 | 80 | 224 | 7.8 | 12.2 | 0.00 | 0.00 | 0.00 | 37 | 1010.7 |
| 20260509221348 | 81 | 202 | 6.1 | 9.6 | 0.00 | 0.00 | 0.00 | 39 | 1011.0 |
| 20260509220843 | 82 | 238 | 3.5 | 5.2 | 0.00 | 0.00 | 0.00 | 38 | 1010.7 |
| 20260509220339 | 81 | 249 | 1.7 | 4.3 | 0.00 | 0.00 | 0.00 | 34 | 1011.0 |
| 20260509215835 | 82 | 311 | 3.5 | 4.3 | 0.00 | 0.00 | 0.00 | 30 | 1010.9 |
| 20260509215332 | 82 | 312 | 7.8 | 9.6 | 0.00 | 0.00 | 0.00 | 31 | 1011.1 |
| 20260509214829 | 80 | 272 | 3.5 | 6.1 | 0.00 | 0.00 | 0.00 | 32 | 1011.0 |
| 20260509214326 | 80 | 260 | 7.8 | 10.4 | 0.00 | 0.00 | 0.00 | 34 | 1011.0 |
| 20260509213823 | 80 | 247 | 7.8 | 14.8 | 0.00 | 0.00 | 0.00 | 34 | 1011.0 |
| 20260509213318 | 81 | 278 | 7.0 | 8.7 | 0.00 | 0.00 | 0.00 | 35 | 1010.9 |
| 20260509212816 | 82 | 232 | 5.2 | 7.0 | 0.00 | 0.00 | 0.00 | 32 | 1011.0 |
| 20260509212313 | 82 | 226 | 4.3 | 4.3 | 0.00 | 0.00 | 0.00 | 33 | 1011.1 |
| 20260509211808 | 83 | 273 | 3.5 | 7.0 | 0.00 | 0.00 | 0.00 | 29 | 1011.2 |
| 20260509211304 | 82 | 131 | 1.7 | 2.6 | 0.00 | 0.00 | 0.00 | 30 | 1011.3 |
| 20260509210801 | 80 | 251 | 4.3 | 11.3 | 0.00 | 0.00 | 0.00 | 32 | 1011.3 |
| 20260509210259 | 82 | 260 | 6.1 | 8.7 | 0.00 | 0.00 | 0.00 | 33 | 1011.4 |
| 20260509205759 | 84 | 294 | 5.2 | 5.2 | 0.00 | 0.00 | 0.00 | 32 | 1011.3 |
| 20260509205254 | 83 | 229 | 3.5 | 3.5 | 0.00 | 0.00 | 0.00 | 31 | 1011.4 |
| 20260509204750 | 81 | 245 | 4.3 | 8.7 | 0.00 | 0.00 | 0.00 | 33 | 1011.4 |
| 20260509204247 | 81 | 226 | 8.7 | 8.7 | 0.00 | 0.00 | 0.00 | 32 | 1011.4 |
| 20260509203743 | 81 | 255 | 6.1 | 9.6 | 0.00 | 0.00 | 0.00 | 33 | 1011.3 |
| 20260509203241 | 81 | 313 | 1.7 | 6.1 | 0.00 | 0.00 | 0.00 | 31 | 1011.4 |
| 20260509202737 | 80 | 283 | 7.0 | 9.6 | 0.00 | 0.00 | 0.00 | 35 | 1011.5 |
| 20260509202233 | 81 | 299 | 9.6 | 10.4 | 0.00 | 0.00 | 0.00 | 38 | 1011.6 |
| 20260509201732 | 81 | 246 | 7.0 | 7.8 | 0.00 | 0.00 | 0.00 | 38 | 1011.7 |
| 20260509201229 | 81 | 239 | 5.2 | 5.2 | 0.00 | 0.00 | 0.00 | 37 | 1011.8 |
| 20260509200726 | 80 | 233 | 6.1 | 7.8 | 0.00 | 0.00 | 0.00 | 36 | 1011.4 |
| 20260509200221 | 80 | 252 | 8.7 | 10.4 | 0.00 | 0.00 | 0.00 | 36 | 1011.6 |
| 20260509195717 | 80 | 267 | 6.1 | 7.8 | 0.00 | 0.00 | 0.00 | 36 | 1011.8 |
| 20260509195213 | 80 | 236 | 10.4 | 11.3 | 0.00 | 0.00 | 0.00 | 36 | 1011.8 |
| 20260509194712 | 81 | 275 | 7.0 | 7.8 | 0.00 | 0.00 | 0.00 | 34 | 1011.7 |
| 20260509194209 | 80 | 281 | 3.5 | 7.8 | 0.00 | 0.00 | 0.00 | 36 | 1011.9 |
| 20260509193706 | 80 | 272 | 5.2 | 10.4 | 0.00 | 0.00 | 0.00 | 34 | 1012.0 |
| 20260509193201 | 79 | 251 | 7.0 | 11.3 | 0.00 | 0.00 | 0.00 | 34 | 1011.8 |
| 20260509192657 | 80 | 281 | 6.1 | 12.2 | 0.00 | 0.00 | 0.00 | 33 | 1011.9 |
| 20260509192158 | 79 | 235 | 7.8 | 13.0 | 0.00 | 0.00 | 0.00 | 32 | 1012.0 |
| 20260509191653 | 79 | 248 | 3.5 | 6.1 | 0.00 | 0.00 | 0.00 | 36 | 1011.8 |
| 20260509191150 | 79 | 261 | 9.6 | 19.1 | 0.00 | 0.00 | 0.00 | 39 | 1012.1 |
| 20260509190646 | 80 | 274 | 8.7 | 13.0 | 0.00 | 0.00 | 0.00 | 40 | 1012.0 |
| 20260509190143 | 79 | 232 | 8.7 | 11.3 | 0.00 | 0.00 | 0.00 | 36 | 1012.0 |
| 20260509185641 | 80 | 266 | 4.3 | 6.1 | 0.00 | 0.00 | 0.00 | 36 | 1012.1 |
| 20260509185137 | 79 | 257 | 7.0 | 9.6 | 0.00 | 0.00 | 0.00 | 39 | 1012.1 |
| 20260509184636 | 79 | 288 | 7.8 | 10.4 | 0.00 | 0.00 | 0.00 | 36 | 1012.0 |
| 20260509184132 | 79 | 297 | 6.1 | 11.3 | 0.00 | 0.00 | 0.00 | 33 | 1012.1 |
| 20260509183628 | 79 | 245 | 7.8 | 9.6 | 0.00 | 0.00 | 0.00 | 35 | 1012.0 |
| 20260509183124 | 79 | 288 | 3.5 | 13.9 | 0.00 | 0.00 | 0.00 | 37 | 1012.2 |
| 20260509182619 | 79 | 260 | 4.3 | 7.8 | 0.00 | 0.00 | 0.00 | 40 | 1012.2 |
| 20260509182117 | 79 | 271 | 7.8 | 9.6 | 0.00 | 0.00 | 0.00 | 41 | 1012.2 |
| 20260509181614 | 79 | 260 | 7.8 | 12.2 | 0.00 | 0.00 | 0.00 | 40 | 1012.4 |
| 20260509181112 | 79 | 314 | 7.0 | 10.4 | 0.00 | 0.00 | 0.00 | 36 | 1012.1 |
| 20260509180608 | 78 | 250 | 7.0 | 12.2 | 0.00 | 0.00 | 0.00 | 39 | 1012.2 |
| 20260509180105 | 78 | 255 | 12.2 | 13.0 | 0.00 | 0.00 | 0.00 | 36 | 1012.1 |
| 20260509175600 | 78 | 268 | 4.3 | 7.8 | 0.00 | 0.00 | 0.00 | 41 | 1012.1 |
| 20260509175058 | 78 | 265 | 6.1 | 7.8 | 0.00 | 0.00 | 0.00 | 43 | 1012.2 |
| 20260509174554 | 79 | 239 | 4.3 | 8.7 | 0.00 | 0.00 | 0.00 | 39 | 1012.2 |
| 20260509174050 | 78 | 290 | 7.0 | 9.6 | 0.00 | 0.00 | 0.00 | 41 | 1012.2 |
| 20260509173549 | 78 | 229 | 11.3 | 15.6 | 0.00 | 0.00 | 0.00 | 42 | 1012.6 |
| 20260509173046 | 78 | 273 | 4.3 | 7.8 | 0.00 | 0.00 | 0.00 | 45 | 1012.4 |
| 20260509172543 | 78 | 306 | 7.0 | 8.7 | 0.00 | 0.00 | 0.00 | 39 | 1012.2 |
| 20260509172039 | 78 | 311 | 6.1 | 10.4 | 0.00 | 0.00 | 0.00 | 40 | 1012.4 |
| 20260509171535 | 77 | 274 | 3.5 | 9.6 | 0.00 | 0.00 | 0.00 | 40 | 1012.6 |
| 20260509171032 | 77 | 224 | 7.8 | 10.4 | 0.00 | 0.00 | 0.00 | 43 | 1012.4 |
| 20260509170527 | 77 | 256 | 8.7 | 13.9 | 0.00 | 0.00 | 0.00 | 43 | 1012.4 |
| 20260509170023 | 77 | 244 | 7.0 | 11.3 | 0.00 | 0.00 | 0.00 | 43 | 1012.5 |
| 20260509165522 | 76 | 288 | 5.2 | 11.3 | 0.00 | 0.00 | 0.00 | 45 | 1012.5 |
| 20260509165018 | 76 | 262 | 7.8 | 11.3 | 0.00 | 0.00 | 0.00 | 44 | 1012.5 |